Year,Month,Day,Hour,Minute,Value (Times are PST for windspeed in km/hr)
2009,06,26,00,00,0.00
2009,06,26,00,01,0.00
2009,06,26,00,02,0.10
2009,06,26,00,03,0.20
2009,06,26,00,04,0.00
2009,06,26,00,05,1.40
2009,06,26,00,06,0.20
2009,06,26,00,07,0.30
2009,06,26,00,08,0.10
2009,06,26,00,09,1.20
2009,06,26,00,10,1.20
2009,06,26,00,11,1.70
2009,06,26,00,12,0.40
2009,06,26,00,13,0.10
2009,06,26,00,14,0.20
2009,06,26,00,15,0.30
2009,06,26,00,16,2.80
2009,06,26,00,17,3.20
2009,06,26,00,18,0.40
2009,06,26,00,19,0.80
2009,06,26,00,20,0.60
2009,06,26,00,21,1.30
2009,06,26,00,22,1.10
2009,06,26,00,23,0.70
2009,06,26,00,24,0.10
2009,06,26,00,25,0.20
2009,06,26,00,26,2.80
2009,06,26,00,27,0.10
2009,06,26,00,28,0.00
2009,06,26,00,29,0.20
2009,06,26,00,30,1.20
2009,06,26,00,31,1.40
2009,06,26,00,32,1.30
2009,06,26,00,33,2.40
2009,06,26,00,34,3.00
2009,06,26,00,35,1.20
2009,06,26,00,36,0.20
2009,06,26,00,37,0.20
2009,06,26,00,38,2.50
2009,06,26,00,39,1.50
2009,06,26,00,40,0.10
2009,06,26,00,41,0.20
2009,06,26,00,42,0.60
2009,06,26,00,43,0.20
2009,06,26,00,44,0.10
2009,06,26,00,45,0.00
2009,06,26,00,46,1.10
2009,06,26,00,47,2.20
2009,06,26,00,48,0.40
2009,06,26,00,49,0.00
2009,06,26,00,50,0.00
2009,06,26,00,51,0.00
2009,06,26,00,52,1.40
2009,06,26,00,53,0.50
2009,06,26,00,54,0.20
2009,06,26,00,55,0.00
2009,06,26,00,56,0.00
2009,06,26,00,57,2.70
2009,06,26,00,58,2.70
2009,06,26,00,59,1.80
2009,06,26,01,00,2.60
2009,06,26,01,01,1.30
2009,06,26,01,02,0.30
2009,06,26,01,03,1.40
2009,06,26,01,04,2.30
2009,06,26,01,05,2.90
2009,06,26,01,06,2.50
2009,06,26,01,07,3.10
2009,06,26,01,08,1.40
2009,06,26,01,09,2.10
2009,06,26,01,10,1.20
2009,06,26,01,11,3.30
2009,06,26,01,12,1.80
2009,06,26,01,13,0.60
2009,06,26,01,14,0.20
2009,06,26,01,15,1.10
2009,06,26,01,16,1.40
2009,06,26,01,17,0.20
2009,06,26,01,18,0.00
2009,06,26,01,19,0.00
2009,06,26,01,20,0.70
2009,06,26,01,21,2.60
2009,06,26,01,22,0.60
2009,06,26,01,23,1.30
2009,06,26,01,24,0.10
2009,06,26,01,25,0.80
2009,06,26,01,26,0.30
2009,06,26,01,27,0.80
2009,06,26,01,28,2.90
2009,06,26,01,29,2.20
2009,06,26,01,30,1.40
2009,06,26,01,31,2.80
2009,06,26,01,32,2.00
2009,06,26,01,33,1.70
2009,06,26,01,34,1.80
2009,06,26,01,35,2.30
2009,06,26,01,36,0.00
2009,06,26,01,37,0.00
2009,06,26,01,38,1.20
2009,06,26,01,39,0.60
2009,06,26,01,40,0.00
2009,06,26,01,41,0.00
2009,06,26,01,42,0.00
2009,06,26,01,43,0.40
2009,06,26,01,44,0.40
2009,06,26,01,45,1.70
2009,06,26,01,46,3.30
2009,06,26,01,47,0.20
2009,06,26,01,48,0.00
2009,06,26,01,49,1.60
2009,06,26,01,50,1.00
2009,06,26,01,51,0.20
2009,06,26,01,52,0.20
2009,06,26,01,53,0.10
2009,06,26,01,54,0.20
2009,06,26,01,55,0.50
2009,06,26,01,56,3.00
2009,06,26,01,57,1.00
2009,06,26,01,58,0.10
2009,06,26,01,59,0.80
2009,06,26,02,00,2.30
2009,06,26,02,01,2.90
2009,06,26,02,02,1.70
2009,06,26,02,03,4.10
2009,06,26,02,04,1.50
2009,06,26,02,05,0.40
2009,06,26,02,06,1.10
2009,06,26,02,07,1.10
2009,06,26,02,08,0.10
2009,06,26,02,09,0.00
2009,06,26,02,10,0.10
2009,06,26,02,11,0.80
2009,06,26,02,12,0.00
2009,06,26,02,13,0.00
2009,06,26,02,14,2.60
2009,06,26,02,15,1.50
2009,06,26,02,16,2.00
2009,06,26,02,17,1.00
2009,06,26,02,18,0.20
2009,06,26,02,19,0.10
2009,06,26,02,20,1.40
2009,06,26,02,21,0.70
2009,06,26,02,22,0.00
2009,06,26,02,23,0.00
2009,06,26,02,24,0.00
2009,06,26,02,25,0.00
2009,06,26,02,26,0.40
2009,06,26,02,27,0.20
2009,06,26,02,28,0.00
2009,06,26,02,29,0.40
2009,06,26,02,30,2.20
2009,06,26,02,31,0.80
2009,06,26,02,32,0.10
2009,06,26,02,33,0.00
2009,06,26,02,34,0.00
2009,06,26,02,35,0.60
2009,06,26,02,36,2.30
2009,06,26,02,37,1.40
2009,06,26,02,38,0.80
2009,06,26,02,39,0.10
2009,06,26,02,40,0.00
2009,06,26,02,41,0.90
2009,06,26,02,42,1.80
2009,06,26,02,43,0.80
2009,06,26,02,44,1.40
2009,06,26,02,45,1.50
2009,06,26,02,46,1.20
2009,06,26,02,47,0.00
2009,06,26,02,48,0.10
2009,06,26,02,49,0.20
2009,06,26,02,50,0.00
2009,06,26,02,51,2.20
2009,06,26,02,52,2.60
2009,06,26,02,53,2.40
2009,06,26,02,54,2.60
2009,06,26,02,55,3.10
2009,06,26,02,56,3.30
2009,06,26,02,57,1.90
2009,06,26,02,58,1.70
2009,06,26,02,59,1.60
2009,06,26,03,00,2.70
2009,06,26,03,01,3.90
2009,06,26,03,02,2.60
2009,06,26,03,03,3.10
2009,06,26,03,04,3.60
2009,06,26,03,05,2.80
2009,06,26,03,06,0.00
2009,06,26,03,07,1.90
2009,06,26,03,08,1.90
2009,06,26,03,09,2.30
2009,06,26,03,10,0.20
2009,06,26,03,11,1.90
2009,06,26,03,12,1.30
2009,06,26,03,13,1.60
2009,06,26,03,14,1.80
2009,06,26,03,15,0.90
2009,06,26,03,16,4.00
2009,06,26,03,17,2.70
2009,06,26,03,18,1.90
2009,06,26,03,19,1.70
2009,06,26,03,20,1.70
2009,06,26,03,21,1.10
2009,06,26,03,22,1.20
2009,06,26,03,23,1.40
2009,06,26,03,24,1.20
2009,06,26,03,25,2.70
2009,06,26,03,26,2.10
2009,06,26,03,27,4.40
2009,06,26,03,28,3.70
2009,06,26,03,29,4.20
2009,06,26,03,30,3.00
2009,06,26,03,31,2.60
2009,06,26,03,32,3.20
2009,06,26,03,33,2.70
2009,06,26,03,34,0.80
2009,06,26,03,35,3.10
2009,06,26,03,36,3.10
2009,06,26,03,37,3.10
2009,06,26,03,38,3.30
2009,06,26,03,39,1.00
2009,06,26,03,40,3.00
2009,06,26,03,41,5.70
2009,06,26,03,42,2.80
2009,06,26,03,43,3.30
2009,06,26,03,44,1.90
2009,06,26,03,45,3.90
2009,06,26,03,46,4.10
2009,06,26,03,47,3.10
2009,06,26,03,48,3.70
2009,06,26,03,49,0.20
2009,06,26,03,50,1.40
2009,06,26,03,51,0.60
2009,06,26,03,52,2.00
2009,06,26,03,53,2.20
2009,06,26,03,54,2.20
2009,06,26,03,55,0.10
2009,06,26,03,56,1.20
2009,06,26,03,57,0.20
2009,06,26,03,58,1.00
2009,06,26,03,59,0.70
2009,06,26,04,00,2.30
2009,06,26,04,01,2.50
2009,06,26,04,02,1.00
2009,06,26,04,03,2.50
2009,06,26,04,04,2.30
2009,06,26,04,05,0.20
2009,06,26,04,06,1.50
2009,06,26,04,07,3.50
2009,06,26,04,08,3.20
2009,06,26,04,09,2.60
2009,06,26,04,10,0.40
2009,06,26,04,11,0.30
2009,06,26,04,12,0.00
2009,06,26,04,13,0.90
2009,06,26,04,14,0.10
2009,06,26,04,15,0.90
2009,06,26,04,16,0.90
2009,06,26,04,17,3.60
2009,06,26,04,18,3.20
2009,06,26,04,19,1.60
2009,06,26,04,20,1.60
2009,06,26,04,21,1.50
2009,06,26,04,22,2.80
2009,06,26,04,23,3.10
2009,06,26,04,24,5.00
2009,06,26,04,25,2.70
2009,06,26,04,26,1.40
2009,06,26,04,27,1.60
2009,06,26,04,28,3.10
2009,06,26,04,29,1.90
2009,06,26,04,30,1.90
2009,06,26,04,31,0.30
2009,06,26,04,32,1.30
2009,06,26,04,33,0.20
2009,06,26,04,34,1.90
2009,06,26,04,35,1.70
2009,06,26,04,36,3.60
2009,06,26,04,37,2.50
2009,06,26,04,38,3.60
2009,06,26,04,39,0.40
2009,06,26,04,40,0.10
2009,06,26,04,41,1.50
2009,06,26,04,42,3.90
2009,06,26,04,43,0.30
2009,06,26,04,44,0.90
2009,06,26,04,45,0.30
2009,06,26,04,46,3.20
2009,06,26,04,47,3.30
2009,06,26,04,48,3.40
2009,06,26,04,49,4.90
2009,06,26,04,50,2.50
2009,06,26,04,51,0.00
2009,06,26,04,52,1.30
2009,06,26,04,53,1.80
2009,06,26,04,54,1.50
2009,06,26,04,55,0.10
2009,06,26,04,56,0.10
2009,06,26,04,57,0.60
2009,06,26,04,58,0.40
2009,06,26,04,59,3.00
2009,06,26,05,00,0.20
2009,06,26,05,01,0.10
2009,06,26,05,02,1.80
2009,06,26,05,03,0.50
2009,06,26,05,04,1.30
2009,06,26,05,05,3.30
2009,06,26,05,06,3.10
2009,06,26,05,07,2.30
2009,06,26,05,08,1.10
2009,06,26,05,09,0.40
2009,06,26,05,10,2.30
2009,06,26,05,11,2.40
2009,06,26,05,12,2.30
2009,06,26,05,13,3.50
2009,06,26,05,14,1.60
2009,06,26,05,15,0.10
2009,06,26,05,16,1.20
2009,06,26,05,17,0.60
2009,06,26,05,18,1.80
2009,06,26,05,19,0.10
2009,06,26,05,20,1.10
2009,06,26,05,21,2.30
2009,06,26,05,22,1.10
2009,06,26,05,23,1.50
2009,06,26,05,24,1.40
2009,06,26,05,25,0.80
2009,06,26,05,26,0.20
2009,06,26,05,27,0.00
2009,06,26,05,28,0.90
2009,06,26,05,29,2.10
2009,06,26,05,30,1.00
2009,06,26,05,31,0.10
2009,06,26,05,32,0.30
2009,06,26,05,33,0.80
2009,06,26,05,34,0.00
2009,06,26,05,35,1.00
2009,06,26,05,36,1.40
2009,06,26,05,37,3.50
2009,06,26,05,38,1.80
2009,06,26,05,39,0.00
2009,06,26,05,40,0.10
2009,06,26,05,41,2.50
2009,06,26,05,42,2.50
2009,06,26,05,43,1.70
2009,06,26,05,44,3.80
2009,06,26,05,45,1.30
2009,06,26,05,46,2.60
2009,06,26,05,47,1.40
2009,06,26,05,48,1.90
2009,06,26,05,49,3.50
2009,06,26,05,50,1.70
2009,06,26,05,51,4.60
2009,06,26,05,52,1.80
2009,06,26,05,53,2.30
2009,06,26,05,54,0.60
2009,06,26,05,55,0.10
2009,06,26,05,56,2.20
2009,06,26,05,57,0.70
2009,06,26,05,58,1.00
2009,06,26,05,59,1.80
2009,06,26,06,00,2.40
2009,06,26,06,01,3.20
2009,06,26,06,02,1.40
2009,06,26,06,03,2.70
2009,06,26,06,04,1.90
2009,06,26,06,05,4.30
2009,06,26,06,06,5.50
2009,06,26,06,07,5.50
2009,06,26,06,08,1.90
2009,06,26,06,09,2.20
2009,06,26,06,10,1.00
2009,06,26,06,11,5.80
2009,06,26,06,12,6.60
2009,06,26,06,13,3.30
2009,06,26,06,14,4.90
2009,06,26,06,15,6.80
2009,06,26,06,16,1.90
2009,06,26,06,17,0.40
2009,06,26,06,18,0.70
2009,06,26,06,19,0.20
2009,06,26,06,20,2.80
2009,06,26,06,21,0.60
2009,06,26,06,22,1.20
2009,06,26,06,23,0.10
2009,06,26,06,24,0.40
2009,06,26,06,25,0.30
2009,06,26,06,26,0.60
2009,06,26,06,27,0.70
2009,06,26,06,28,0.00
2009,06,26,06,29,0.00
2009,06,26,06,30,1.00
2009,06,26,06,31,3.10
2009,06,26,06,32,0.80
2009,06,26,06,33,0.00
2009,06,26,06,34,0.20
2009,06,26,06,35,0.30
2009,06,26,06,36,1.10
2009,06,26,06,37,0.00
2009,06,26,06,38,0.10
2009,06,26,06,39,0.00
2009,06,26,06,40,0.10
2009,06,26,06,41,0.00
2009,06,26,06,42,0.30
2009,06,26,06,43,1.20
2009,06,26,06,44,0.20
2009,06,26,06,45,0.20
2009,06,26,06,46,0.50
2009,06,26,06,47,0.60
2009,06,26,06,48,0.90
2009,06,26,06,49,0.90
2009,06,26,06,50,0.30
2009,06,26,06,51,0.10
2009,06,26,06,52,0.30
2009,06,26,06,53,2.50
2009,06,26,06,54,3.50
2009,06,26,06,55,1.70
2009,06,26,06,56,2.20
2009,06,26,06,57,0.10
2009,06,26,06,58,0.00
2009,06,26,06,59,2.50
2009,06,26,07,00,0.20
2009,06,26,07,01,0.80
2009,06,26,07,02,0.50
2009,06,26,07,03,0.10
2009,06,26,07,04,2.20
2009,06,26,07,05,2.20
2009,06,26,07,06,1.00
2009,06,26,07,07,1.20
2009,06,26,07,08,0.10
2009,06,26,07,09,0.10
2009,06,26,07,10,3.00
2009,06,26,07,11,0.10
2009,06,26,07,12,1.20
2009,06,26,07,13,3.70
2009,06,26,07,14,6.10
2009,06,26,07,15,5.60
2009,06,26,07,16,8.40
2009,06,26,07,17,5.10
2009,06,26,07,18,6.10
2009,06,26,07,19,3.00
2009,06,26,07,20,6.80
2009,06,26,07,21,4.20
2009,06,26,07,22,1.60
2009,06,26,07,23,4.20
2009,06,26,07,24,4.30
2009,06,26,07,25,3.10
2009,06,26,07,26,4.30
2009,06,26,07,27,6.20
2009,06,26,07,28,3.00
2009,06,26,07,29,6.10
2009,06,26,07,30,7.20
2009,06,26,07,31,3.80
2009,06,26,07,32,2.20
2009,06,26,07,33,10.50
2009,06,26,07,34,2.60
2009,06,26,07,35,2.80
2009,06,26,07,36,4.20
2009,06,26,07,37,3.50
2009,06,26,07,38,2.30
2009,06,26,07,39,5.30
2009,06,26,07,40,2.40
2009,06,26,07,41,10.60
2009,06,26,07,42,4.80
2009,06,26,07,43,6.70
2009,06,26,07,44,5.50
2009,06,26,07,45,4.60
2009,06,26,07,46,0.80
2009,06,26,07,47,4.70
2009,06,26,07,48,5.60
2009,06,26,07,49,5.20
2009,06,26,07,50,1.20
2009,06,26,07,51,0.50
2009,06,26,07,52,1.20
2009,06,26,07,53,1.40
2009,06,26,07,54,3.30
2009,06,26,07,55,3.00
2009,06,26,07,56,1.50
2009,06,26,07,57,3.80
2009,06,26,07,58,1.00
2009,06,26,07,59,4.50
2009,06,26,08,00,3.10
2009,06,26,08,01,4.40
2009,06,26,08,02,0.20
2009,06,26,08,03,0.00
2009,06,26,08,04,1.90
2009,06,26,08,05,3.50
2009,06,26,08,06,5.90
2009,06,26,08,07,5.70
2009,06,26,08,08,9.50
2009,06,26,08,09,3.70
2009,06,26,08,10,1.80
2009,06,26,08,11,3.30
2009,06,26,08,12,3.70
2009,06,26,08,13,7.70
2009,06,26,08,14,5.20
2009,06,26,08,15,3.90
2009,06,26,08,16,6.30
2009,06,26,08,17,6.30
2009,06,26,08,18,2.50
2009,06,26,08,19,4.00
2009,06,26,08,20,7.00
2009,06,26,08,21,5.10
2009,06,26,08,22,9.30
2009,06,26,08,23,11.80
2009,06,26,08,24,6.40
2009,06,26,08,25,2.90
2009,06,26,08,26,1.40
2009,06,26,08,27,1.10
2009,06,26,08,28,6.00
2009,06,26,08,29,5.60
2009,06,26,08,30,4.60
2009,06,26,08,31,3.80
2009,06,26,08,32,1.90
2009,06,26,08,33,1.70
2009,06,26,08,34,0.60
2009,06,26,08,35,3.10
2009,06,26,08,36,0.10
2009,06,26,08,37,4.80
2009,06,26,08,38,3.10
2009,06,26,08,39,5.00
2009,06,26,08,40,0.80
2009,06,26,08,41,0.60
2009,06,26,08,42,3.00
2009,06,26,08,43,7.30
2009,06,26,08,44,4.40
2009,06,26,08,45,2.90
2009,06,26,08,46,3.80
2009,06,26,08,47,3.00
2009,06,26,08,48,7.50
2009,06,26,08,49,7.50
2009,06,26,08,50,2.70
2009,06,26,08,51,4.40
2009,06,26,08,52,6.40
2009,06,26,08,53,12.70
2009,06,26,08,54,5.50
2009,06,26,08,55,7.60
2009,06,26,08,56,3.60
2009,06,26,08,57,3.10
2009,06,26,08,58,3.00
2009,06,26,08,59,5.70
2009,06,26,09,00,7.30
2009,06,26,09,01,3.90
2009,06,26,09,02,8.10
2009,06,26,09,03,5.60
2009,06,26,09,04,6.80
2009,06,26,09,05,5.10
2009,06,26,09,06,0.10
2009,06,26,09,07,2.20
2009,06,26,09,08,7.00
2009,06,26,09,09,8.50
2009,06,26,09,10,8.10
2009,06,26,09,11,5.60
2009,06,26,09,12,3.40
2009,06,26,09,13,0.70
2009,06,26,09,14,1.10
2009,06,26,09,15,5.40
2009,06,26,09,16,3.00
2009,06,26,09,17,1.10
2009,06,26,09,18,4.10
2009,06,26,09,19,3.00
2009,06,26,09,20,3.90
2009,06,26,09,21,2.20
2009,06,26,09,22,4.90
2009,06,26,09,23,4.70
2009,06,26,09,24,3.30
2009,06,26,09,25,5.30
2009,06,26,09,26,7.40
2009,06,26,09,27,4.40
2009,06,26,09,28,2.90
2009,06,26,09,29,3.90
2009,06,26,09,30,4.00
2009,06,26,09,31,2.10
2009,06,26,09,32,3.50
2009,06,26,09,33,3.90
2009,06,26,09,34,3.40
2009,06,26,09,35,3.50
2009,06,26,09,36,5.60
2009,06,26,09,37,7.10
2009,06,26,09,38,6.40
2009,06,26,09,39,3.00
2009,06,26,09,40,5.00
2009,06,26,09,41,8.30
2009,06,26,09,42,1.40
2009,06,26,09,43,1.90
2009,06,26,09,44,1.50
2009,06,26,09,45,1.30
2009,06,26,09,46,2.60
2009,06,26,09,47,1.70
2009,06,26,09,48,2.30
2009,06,26,09,49,0.30
2009,06,26,09,50,1.40
2009,06,26,09,51,4.00
2009,06,26,09,52,4.00
2009,06,26,09,53,3.50
2009,06,26,09,54,2.50
2009,06,26,09,55,0.00
2009,06,26,09,56,2.00
2009,06,26,09,57,3.50
2009,06,26,09,58,4.10
2009,06,26,09,59,1.00
2009,06,26,10,00,0.90
2009,06,26,10,01,2.50
2009,06,26,10,02,3.10
2009,06,26,10,03,1.00
2009,06,26,10,04,0.70
2009,06,26,10,05,1.30
2009,06,26,10,06,1.30
2009,06,26,10,07,1.90
2009,06,26,10,08,0.70
2009,06,26,10,09,2.20
2009,06,26,10,10,1.80
2009,06,26,10,11,0.60
2009,06,26,10,12,0.60
2009,06,26,10,13,1.50
2009,06,26,10,14,1.00
2009,06,26,10,15,0.40
2009,06,26,10,16,3.90
2009,06,26,10,17,2.80
2009,06,26,10,18,2.60
2009,06,26,10,19,1.50
2009,06,26,10,20,1.90
2009,06,26,10,21,2.10
2009,06,26,10,22,2.70
2009,06,26,10,23,1.80
2009,06,26,10,24,1.50
2009,06,26,10,25,2.70
2009,06,26,10,26,3.80
2009,06,26,10,27,1.40
2009,06,26,10,28,1.90
2009,06,26,10,29,0.60
2009,06,26,10,30,0.50
2009,06,26,10,31,2.40
2009,06,26,10,32,2.00
2009,06,26,10,33,3.30
2009,06,26,10,34,0.90
2009,06,26,10,35,3.60
2009,06,26,10,36,1.50
2009,06,26,10,37,2.00
2009,06,26,10,38,1.00
2009,06,26,10,39,1.70
2009,06,26,10,40,2.60
2009,06,26,10,41,3.10
2009,06,26,10,42,1.60
2009,06,26,10,43,2.20
2009,06,26,10,44,2.80
2009,06,26,10,45,2.10
2009,06,26,10,46,1.00
2009,06,26,10,47,0.70
2009,06,26,10,48,2.70
2009,06,26,10,49,1.60
2009,06,26,10,50,1.00
2009,06,26,10,51,2.80
2009,06,26,10,52,2.00
2009,06,26,10,53,1.40
2009,06,26,10,54,1.20
2009,06,26,10,55,3.90
2009,06,26,10,56,1.40
2009,06,26,10,57,1.70
2009,06,26,10,58,0.40
2009,06,26,10,59,0.20
2009,06,26,11,00,0.50
2009,06,26,11,01,0.60
2009,06,26,11,02,0.20
2009,06,26,11,03,1.80
2009,06,26,11,04,1.40
2009,06,26,11,05,1.30
2009,06,26,11,06,1.60
2009,06,26,11,07,1.00
2009,06,26,11,08,1.60
2009,06,26,11,09,2.60
2009,06,26,11,10,0.20
2009,06,26,11,11,1.00
2009,06,26,11,12,0.70
2009,06,26,11,13,0.70
2009,06,26,11,14,2.40
2009,06,26,11,15,1.20
2009,06,26,11,16,0.80
2009,06,26,11,17,0.40
2009,06,26,11,18,1.70
2009,06,26,11,19,2.20
2009,06,26,11,20,2.20
2009,06,26,11,21,0.20
2009,06,26,11,22,1.20
2009,06,26,11,23,1.90
2009,06,26,11,24,2.30
2009,06,26,11,25,1.40
2009,06,26,11,26,1.90
2009,06,26,11,27,1.80
2009,06,26,11,28,2.60
2009,06,26,11,29,1.80
2009,06,26,11,30,3.30
2009,06,26,11,31,1.70
2009,06,26,11,32,1.40
2009,06,26,11,33,0.90
2009,06,26,11,34,3.90
2009,06,26,11,35,1.10
2009,06,26,11,36,0.90
2009,06,26,11,37,2.60
2009,06,26,11,38,2.30
2009,06,26,11,39,1.10
2009,06,26,11,40,0.70
2009,06,26,11,41,2.00
2009,06,26,11,42,1.80
2009,06,26,11,43,2.20
2009,06,26,11,44,1.40
2009,06,26,11,45,1.40
2009,06,26,11,46,1.90
2009,06,26,11,47,1.40
2009,06,26,11,48,1.80
2009,06,26,11,49,3.00
2009,06,26,11,50,2.60
2009,06,26,11,51,0.40
2009,06,26,11,52,0.60
2009,06,26,11,53,1.40
2009,06,26,11,54,2.50
2009,06,26,11,55,2.20
2009,06,26,11,56,1.80
2009,06,26,11,57,0.50
2009,06,26,11,58,0.50
2009,06,26,11,59,1.00
2009,06,26,12,00,0.20
2009,06,26,12,01,1.60
2009,06,26,12,02,0.60
2009,06,26,12,03,1.40
2009,06,26,12,04,1.50
2009,06,26,12,05,1.50
2009,06,26,12,06,2.50
2009,06,26,12,07,0.80
2009,06,26,12,08,1.40
2009,06,26,12,09,1.90
2009,06,26,12,10,3.10
2009,06,26,12,11,2.60
2009,06,26,12,12,2.00
2009,06,26,12,13,0.60
2009,06,26,12,14,1.70
2009,06,26,12,15,3.10
2009,06,26,12,16,1.50
2009,06,26,12,17,1.50
2009,06,26,12,18,1.10
2009,06,26,12,19,2.00
2009,06,26,12,20,1.80
2009,06,26,12,21,1.80
2009,06,26,12,22,1.40
2009,06,26,12,23,2.00
2009,06,26,12,24,2.70
2009,06,26,12,25,2.80
2009,06,26,12,26,0.90
2009,06,26,12,27,1.10
2009,06,26,12,28,1.90
2009,06,26,12,29,2.30
2009,06,26,12,30,1.50
2009,06,26,12,31,3.20
2009,06,26,12,32,0.80
2009,06,26,12,33,0.10
2009,06,26,12,34,0.30
2009,06,26,12,35,0.90
2009,06,26,12,36,0.50
2009,06,26,12,37,1.80
2009,06,26,12,38,1.60
2009,06,26,12,39,0.90
2009,06,26,12,40,1.80
2009,06,26,12,41,0.30
2009,06,26,12,42,1.50
2009,06,26,12,43,1.10
2009,06,26,12,44,1.10
2009,06,26,12,45,0.90
2009,06,26,12,46,0.80
2009,06,26,12,47,1.40
2009,06,26,12,48,0.30
2009,06,26,12,49,0.40
2009,06,26,12,50,1.10
2009,06,26,12,51,1.60
2009,06,26,12,52,1.80
2009,06,26,12,53,0.90
2009,06,26,12,54,1.00
2009,06,26,12,55,0.80
2009,06,26,12,56,0.20
2009,06,26,12,57,0.80
2009,06,26,12,58,1.10
2009,06,26,12,59,0.60
2009,06,26,13,00,0.50
2009,06,26,13,01,1.60
2009,06,26,13,02,2.30
2009,06,26,13,03,2.30
2009,06,26,13,04,0.90
2009,06,26,13,05,2.60
2009,06,26,13,06,2.20
2009,06,26,13,07,1.80
2009,06,26,13,08,2.60
2009,06,26,13,09,3.10
2009,06,26,13,10,2.50
2009,06,26,13,11,1.50
2009,06,26,13,12,2.40
2009,06,26,13,13,5.10
2009,06,26,13,14,3.10
2009,06,26,13,15,1.80
2009,06,26,13,16,2.00
2009,06,26,13,17,2.20
2009,06,26,13,18,1.80
2009,06,26,13,19,4.20
2009,06,26,13,20,1.00
2009,06,26,13,21,3.30
2009,06,26,13,22,2.60
2009,06,26,13,23,5.00
2009,06,26,13,24,1.30
2009,06,26,13,25,0.60
2009,06,26,13,26,0.20
2009,06,26,13,27,1.10
2009,06,26,13,28,1.80
2009,06,26,13,29,2.60
2009,06,26,13,30,1.00
2009,06,26,13,31,3.20
2009,06,26,13,32,1.90
2009,06,26,13,33,1.90
2009,06,26,13,34,0.80
2009,06,26,13,35,2.70
2009,06,26,13,36,1.70
2009,06,26,13,37,1.30
2009,06,26,13,38,2.30
2009,06,26,13,39,1.90
2009,06,26,13,40,1.80
2009,06,26,13,41,2.20
2009,06,26,13,42,2.50
2009,06,26,13,43,1.10
2009,06,26,13,44,1.90
2009,06,26,13,45,2.30
2009,06,26,13,46,3.50
2009,06,26,13,47,1.50
2009,06,26,13,48,1.90
2009,06,26,13,49,1.40
2009,06,26,13,50,0.60
2009,06,26,13,51,3.30
2009,06,26,13,52,2.00
2009,06,26,13,53,2.50
2009,06,26,13,54,1.20
2009,06,26,13,55,1.00
2009,06,26,13,56,2.80
2009,06,26,13,57,0.60
2009,06,26,13,58,1.20
2009,06,26,13,59,1.10
2009,06,26,14,00,2.30
2009,06,26,14,01,2.70
2009,06,26,14,02,4.80
2009,06,26,14,03,1.80
2009,06,26,14,04,6.40
2009,06,26,14,05,1.50
2009,06,26,14,06,1.90
2009,06,26,14,07,2.60
2009,06,26,14,08,6.90
2009,06,26,14,09,2.70
2009,06,26,14,10,1.80
2009,06,26,14,11,1.90
2009,06,26,14,12,2.60
2009,06,26,14,13,1.50
2009,06,26,14,14,1.90
2009,06,26,14,15,1.00
2009,06,26,14,16,6.50
2009,06,26,14,17,5.80
2009,06,26,14,18,6.10
2009,06,26,14,19,3.40
2009,06,26,14,20,1.80
2009,06,26,14,21,6.00
2009,06,26,14,22,3.20
2009,06,26,14,23,1.30
2009,06,26,14,24,3.60
2009,06,26,14,25,2.60
2009,06,26,14,26,2.30
2009,06,26,14,27,1.60
2009,06,26,14,28,1.30
2009,06,26,14,29,0.60
2009,06,26,14,30,4.50
2009,06,26,14,31,6.80
2009,06,26,14,32,1.90
2009,06,26,14,33,1.30
2009,06,26,14,34,1.40
2009,06,26,14,35,2.90
2009,06,26,14,36,2.00
2009,06,26,14,37,1.90
2009,06,26,14,38,4.10
2009,06,26,14,39,2.00
2009,06,26,14,40,1.00
2009,06,26,14,41,1.30
2009,06,26,14,42,2.60
2009,06,26,14,43,1.50
2009,06,26,14,44,1.70
2009,06,26,14,45,1.50
2009,06,26,14,46,1.00
2009,06,26,14,47,2.30
2009,06,26,14,48,2.60
2009,06,26,14,49,3.20
2009,06,26,14,50,2.00
2009,06,26,14,51,4.40
2009,06,26,14,52,2.80
2009,06,26,14,53,1.80
2009,06,26,14,54,3.10
2009,06,26,14,55,3.30
2009,06,26,14,56,2.20
2009,06,26,14,57,1.70
2009,06,26,14,58,4.40
2009,06,26,14,59,0.40
2009,06,26,15,00,0.60
2009,06,26,15,01,1.40
2009,06,26,15,02,0.60
2009,06,26,15,03,1.90
2009,06,26,15,04,1.20
2009,06,26,15,05,2.70
2009,06,26,15,06,2.20
2009,06,26,15,07,1.70
2009,06,26,15,08,1.10
2009,06,26,15,09,1.10
2009,06,26,15,10,0.70
2009,06,26,15,11,0.60
2009,06,26,15,12,1.00
2009,06,26,15,13,0.20
2009,06,26,15,14,2.40
2009,06,26,15,15,3.50
2009,06,26,15,16,3.20
2009,06,26,15,17,1.70
2009,06,26,15,18,1.30
2009,06,26,15,19,0.60
2009,06,26,15,20,2.10
2009,06,26,15,21,0.50
2009,06,26,15,22,1.00
2009,06,26,15,23,3.50
2009,06,26,15,24,3.30
2009,06,26,15,25,5.10
2009,06,26,15,26,3.20
2009,06,26,15,27,3.40
2009,06,26,15,28,1.50
2009,06,26,15,29,1.00
2009,06,26,15,30,7.00
2009,06,26,15,31,6.80
2009,06,26,15,32,1.60
2009,06,26,15,33,3.30
2009,06,26,15,34,3.50
2009,06,26,15,35,2.50
2009,06,26,15,36,1.80
2009,06,26,15,37,4.80
2009,06,26,15,38,4.70
2009,06,26,15,39,3.30
2009,06,26,15,40,4.80
2009,06,26,15,41,7.20
2009,06,26,15,42,9.70
2009,06,26,15,43,10.50
2009,06,26,15,44,10.00
2009,06,26,15,45,5.60
2009,06,26,15,46,8.10
2009,06,26,15,47,7.10
2009,06,26,15,48,8.80
2009,06,26,15,49,6.40
2009,06,26,15,50,8.00
2009,06,26,15,51,7.80
2009,06,26,15,52,3.10
2009,06,26,15,53,6.70
2009,06,26,15,54,6.40
2009,06,26,15,55,9.50
2009,06,26,15,56,7.40
2009,06,26,15,57,3.70
2009,06,26,15,58,8.00
2009,06,26,15,59,5.40
2009,06,26,16,00,12.60
2009,06,26,16,01,8.90
2009,06,26,16,02,5.40
2009,06,26,16,03,4.80
2009,06,26,16,04,5.60
2009,06,26,16,05,2.10
2009,06,26,16,06,3.30
2009,06,26,16,07,6.00
2009,06,26,16,08,5.20
2009,06,26,16,09,8.30
2009,06,26,16,10,10.70
2009,06,26,16,11,10.50
2009,06,26,16,12,5.10
2009,06,26,16,13,7.10
2009,06,26,16,14,3.60
2009,06,26,16,15,6.20
2009,06,26,16,16,2.90
2009,06,26,16,17,2.60
2009,06,26,16,18,5.80
2009,06,26,16,19,4.10
2009,06,26,16,20,4.40
2009,06,26,16,21,5.80
2009,06,26,16,22,4.30
2009,06,26,16,23,5.00
2009,06,26,16,24,10.10
2009,06,26,16,25,5.90
2009,06,26,16,26,8.20
2009,06,26,16,27,0.60
2009,06,26,16,28,1.40
2009,06,26,16,29,0.80
2009,06,26,16,30,2.30
2009,06,26,16,31,5.60
2009,06,26,16,32,7.50
2009,06,26,16,33,5.20
2009,06,26,16,34,3.10
2009,06,26,16,35,1.30
2009,06,26,16,36,2.50
2009,06,26,16,37,8.40
2009,06,26,16,38,4.20
2009,06,26,16,39,7.90
2009,06,26,16,40,3.60
2009,06,26,16,41,4.00
2009,06,26,16,42,2.70
2009,06,26,16,43,3.50
2009,06,26,16,44,4.70
2009,06,26,16,45,6.10
2009,06,26,16,46,3.10
2009,06,26,16,47,1.50
2009,06,26,16,48,1.60
2009,06,26,16,49,6.30
2009,06,26,16,50,5.30
2009,06,26,16,51,5.10
2009,06,26,16,52,5.50
2009,06,26,16,53,8.00
2009,06,26,16,54,2.90
2009,06,26,16,55,3.50
2009,06,26,16,56,4.20
2009,06,26,16,57,2.30
2009,06,26,16,58,0.70
2009,06,26,16,59,0.60
2009,06,26,17,00,4.70
2009,06,26,17,01,6.90
2009,06,26,17,02,7.60
2009,06,26,17,03,3.20
2009,06,26,17,04,2.20
2009,06,26,17,05,2.70
2009,06,26,17,06,4.10
2009,06,26,17,07,6.10
2009,06,26,17,08,4.60
2009,06,26,17,09,1.60
2009,06,26,17,10,3.50
2009,06,26,17,11,3.10
2009,06,26,17,12,4.10
2009,06,26,17,13,2.20
2009,06,26,17,14,4.30
2009,06,26,17,15,1.00
2009,06,26,17,16,5.50
2009,06,26,17,17,5.10
2009,06,26,17,18,4.20
2009,06,26,17,19,5.10
2009,06,26,17,20,3.00
2009,06,26,17,21,6.30
2009,06,26,17,22,11.10
2009,06,26,17,23,10.90
2009,06,26,17,24,9.30
2009,06,26,17,25,8.10
2009,06,26,17,26,6.40
2009,06,26,17,27,7.80
2009,06,26,17,28,3.40
2009,06,26,17,29,1.90
2009,06,26,17,30,1.30
2009,06,26,17,31,0.50
2009,06,26,17,32,4.00
2009,06,26,17,33,4.90
2009,06,26,17,34,6.00
2009,06,26,17,35,6.90
2009,06,26,17,36,1.70
2009,06,26,17,37,1.50
2009,06,26,17,38,8.10
2009,06,26,17,39,7.50
2009,06,26,17,40,6.00
2009,06,26,17,41,5.30
2009,06,26,17,42,8.50
2009,06,26,17,43,4.60
2009,06,26,17,44,4.30
2009,06,26,17,45,7.40
2009,06,26,17,46,6.40
2009,06,26,17,47,4.90
2009,06,26,17,48,4.30
2009,06,26,17,49,5.00
2009,06,26,17,50,7.70
2009,06,26,17,51,5.80
2009,06,26,17,52,8.70
2009,06,26,17,53,7.90
2009,06,26,17,54,8.50
2009,06,26,17,55,6.50
2009,06,26,17,56,6.60
2009,06,26,17,57,6.10
2009,06,26,17,58,6.40
2009,06,26,17,59,4.20
2009,06,26,18,00,5.00
2009,06,26,18,01,5.80
2009,06,26,18,02,3.30
2009,06,26,18,03,4.20
2009,06,26,18,04,3.50
2009,06,26,18,05,7.50
2009,06,26,18,06,4.80